Location: Jetmore
(38.0845°N, 99.8935°W)
Time: 13:29:52
(UTC+00:00)

Envisat - Pass Details

Date: 24 September 2021
Orbit: 764 x 766 km, 98.2° (Epoch: 23 October)

Event Time Altitude Azimuth Distance (km) Brightness Sun altitude
Rises 11:16:53 0° 20° (NNE) 3,237 6.7 -15.0°
Reaches altitude 10° 11:19:19 10° 27° (NNE) 2,307 6.0 -14.5°
Maximum altitude 11:24:08 42° 98° (E) 1,082 4.3 -13.6°
Drops below altitude 10° 11:28:54 10° 169° (S) 2,291 5.5 -12.7°
Sets 11:31:18 0° 176° (S) 3,213 6.2 -12.2°
